Theta_e
333 338 349 351 349 349 349 349 348 348 346 344 343 343 343 346 344 345 344 344 345 346 346 347 346 344 344 343 343 343 344 345 346 346 347 346 346 345 344 345 343 341 345
336 344 347 348 349 349 350 349 348 349 345 343 342 343 341 341 341 340 342 341 340 342 342 342 343 342 341 341 341 342 342 343 344 344 343 344 345 343 343 343 343 339 342
340 343 344 347 349 348 350 349 348 347 345 342 341 342 341 341 339 341 340 341 339 339 339 340 338 339 338 339 340 341 341 343 342 340 340 334 336 341 341 339 338 339 339
338 339 342 345 347 347 348 349 347 347 346 342 341 341 339 341 340 341 339 338 339 338 337 338 337 337 337 338 340 340 341 342 340 338 333 333 334 339 338 337 338 337 337
336 339 342 344 346 346 347 348 347 347 346 342 340 341 341 339 341 341 342 339 338 338 336 337 337 336 336 338 338 339 340 340 338 334 331 330 331 334 336 335 335 336 337
339 341 342 345 346 346 347 347 348 347 346 342 339 340 340 338 338 341 341 339 337 336 336 335 335 334 335 337 339 340 340 339 334 328 329 332 331 335 336 335 334 334 335
339 340 341 343 344 345 345 346 347 347 346 343 339 339 340 338 338 340 340 338 336 335 334 334 333 333 337 336 337 337 335 335 326 328 326 328 328 332 334 334 333 333 332
337 337 339 337 340 342 343 344 345 346 345 343 340 338 338 338 338 337 339 338 336 336 335 333 333 334 335 334 334 333 332 331 325 325 326 325 333 333 333 332 332 330 329
338 336 337 338 337 336 339 340 342 344 342 341 340 339 338 338 338 336 337 340 337 336 333 332 334 334 333 332 331 331 329 328 322 325 327 326 333 332 332 331 330 328 327
336 335 334 335 336 336 335 333 336 339 339 338 336 333 331 332 332 331 330 335 338 335 334 333 334 333 332 330 330 328 326 327 323 323 324 325 330 329 330 329 327 327 326
334 335 335 334 333 334 334 330 331 333 333 331 330 328 326 327 328 326 327 331 335 336 335 333 332 331 329 327 327 326 326 320 320 320 322 327 328 328 327 326 326 325 324
331 334 336 335 333 333 334 331 333 334 334 333 331 327 329 326 325 326 323 326 330 331 332 331 328 329 326 322 321 323 321 320 321 319 321 327 326 326 325 324 324 323 322
331 332 335 335 335 335 332 331 331 330 331 331 331 330 327 325 323 324 322 321 320 321 323 324 321 321 321 320 321 320 320 320 318 319 321 325 325 324 323 320 321 320 320
330 332 333 334 335 334 334 331 332 330 330 330 330 330 326 323 321 322 322 322 321 320 321 321 320 318 318 319 319 319 320 320 318 319 319 322 326 323 321 321 321 320 319
329 331 333 335 334 335 334 333 334 332 330 330 329 329 327 323 321 322 322 322 321 321 320 318 317 317 317 318 319 319 320 320 320 319 317 318 323 324 322 321 320 320 319
329 330 333 333 335 335 335 334 333 332 332 329 329 328 327 324 322 321 321 321 320 320 319 318 316 316 316 318 318 319 320 320 320 319 318 317 321 324 323 323 322 322 321
327 330 331 332 334 333 334 334 334 333 332 331 329 329 327 325 322 321 320 320 319 320 318 317 316 316 316 317 317 318 319 319 319 319 318 317 317 320 323 323 323 323 323
325 326 330 332 332 333 334 334 334 334 333 332 331 330 327 326 323 321 320 319 320 318 317 316 315 313 313 314 314 315 316 317 317 317 316 317 316 316 319 324 324 323 323
325 326 329 331 331 333 334 334 334 334 333 333 332 331 330 327 325 321 319 319 320 317 315 315 314 313 311 311 311 311 312 312 314 315 314 315 315 316 315 318 320 321 324
323 326 329 333 331 332 333 333 333 332 333 333 332 331 331 329 326 322 320 318 317 315 313 313 312 313 311 311 311 311 310 311 311 310 312 314 313 314 314 314 314 315 318
320 323 325 329 332 332 329 330 330 329 331 331 332 331 330 330 329 324 321 318 317 315 313 311 309 308 308 310 307 304 306 308 308 310 310 311 311 311 312 314 314 312 314
309 317 322 324 328 332 331 331 330 330 330 331 332 331 331 330 329 327 323 320 317 315 314 312 308 308 309 308 304 305 301 304 307 309 309 310 309 311 312 311 312 312 312
301 302 308 316 322 327 331 330 329 329 329 328 329 330 330 329 329 328 326 324 322 318 316 314 312 309 306 307 306 306 301 300 303 309 306 307 307 307 309 309 309 309 309
304 304 304 303 306 313 325 328 327 326 325 327 328 330 329 329 328 328 327 325 323 318 315 315 314 312 310 307 304 306 307 303 302 301 305 303 304 304 304 304 305 305 307
305 305 304 302 302 304 313 323 326 325 325 325 327 327 328 327 327 326 326 325 322 320 317 315 313 312 311 311 307 302 302 303 301 301 300 302 299 298 299 303 301 304 303
304 306 308 301 301 303 309 314 321 323 322 320 321 324 325 325 325 325 325 324 323 321 318 316 315 314 313 312 311 309 304 302 300 299 298 300 301 302 299 299 299 300 302
Wind_Speed
11 8 7 11 12 12 13 12 14 13 15 15 14 16 15 15 17 16 16 16 17 17 17 18 19 19 19 20 20 19 19 19 20 21 21 22 23 24 23 20 19 16 22
15 11 10 11 11 12 11 11 13 13 15 15 14 16 16 14 16 18 17 16 14 16 16 16 17 18 17 18 17 15 16 14 11 15 18 18 20 21 21 18 17 16 20
16 12 10 10 11 10 11 12 11 14 16 15 15 15 15 14 14 19 18 15 16 16 17 16 16 16 16 16 16 17 17 15 20 19 16 9 12 20 19 19 18 19 18
15 12 11 11 10 9 9 9 11 13 15 15 14 14 14 14 14 16 18 15 15 17 17 17 17 17 17 17 17 17 15 11 18 14 9 10 12 19 19 19 20 19 18
11 13 11 12 11 9 9 11 13 14 15 15 14 14 15 14 15 15 17 14 15 16 16 17 17 16 15 15 15 14 12 16 17 14 10 7 7 13 17 17 16 17 16
13 13 10 12 11 11 11 10 10 15 14 15 15 14 14 13 13 12 15 16 13 14 15 16 15 14 14 14 11 11 10 13 13 8 9 11 8 13 15 16 16 15 15
15 12 9 11 11 10 11 10 10 14 15 15 14 13 13 13 12 11 12 15 13 13 14 13 13 13 14 12 12 12 13 9 7 8 9 8 6 10 13 15 15 17 17
15 11 10 9 9 9 9 10 9 10 15 14 13 12 12 12 11 11 10 13 13 12 14 12 11 11 13 12 10 10 9 9 9 8 9 5 7 11 13 13 15 14 15
14 11 9 7 7 8 8 9 9 10 13 13 12 11 10 9 10 9 9 9 14 13 14 11 9 13 12 10 9 8 9 11 9 7 9 4 10 13 13 13 14 13 12
12 12 9 9 7 6 5 7 9 9 11 11 11 10 9 9 10 8 7 7 13 14 12 10 10 12 10 8 7 7 9 9 7 7 6 4 9 9 11 11 10 12 11
8 11 10 9 7 7 7 6 7 9 10 10 8 8 8 4 5 5 7 4 11 12 12 11 8 9 9 5 3 5 6 2 5 4 4 6 7 8 9 9 9 10 9
9 8 10 11 8 9 9 7 6 6 5 5 6 6 4 5 4 5 6 7 8 10 9 8 4 6 6 4 1 5 2 3 4 4 3 6 6 6 7 8 8 8 7
11 5 2 7 7 8 8 5 3 4 4 4 7 6 3 5 4 4 3 3 3 4 3 2 2 3 3 2 3 1 3 2 2 3 5 5 4 5 6 4 5 5 6
11 8 5 3 5 7 5 5 5 4 4 4 5 6 3 3 3 4 4 4 4 3 4 4 3 0 2 3 3 2 1 2 2 3 5 6 4 4 4 5 5 5 5
10 12 9 6 5 6 5 5 5 5 4 5 5 5 5 4 4 3 4 4 4 4 3 2 2 1 2 2 2 2 2 3 2 3 3 9 6 5 5 6 6 6 6
10 11 14 12 9 8 6 7 5 4 5 4 5 5 6 5 4 4 3 3 3 4 4 4 3 3 3 2 3 3 3 3 2 3 4 5 9 7 8 8 8 8 8
8 11 14 15 11 9 9 7 3 4 4 5 4 7 7 5 6 5 4 4 4 4 4 3 3 3 2 2 3 4 2 4 3 4 2 4 5 10 10 11 11 11 11
8 9 9 10 12 10 8 7 5 4 3 4 4 4 7 6 6 5 4 5 5 4 4 3 3 3 3 3 3 4 4 4 5 4 4 3 4 5 9 13 14 14 14
9 9 9 10 10 11 9 6 6 5 4 3 4 3 6 6 6 5 4 4 5 4 4 3 4 3 3 2 2 3 3 4 5 4 6 6 6 5 4 11 15 14 15
9 9 10 11 13 12 7 5 4 4 4 4 4 4 5 6 6 5 4 4 3 3 3 2 3 0 2 3 4 4 4 5 4 5 6 6 6 6 6 6 6 9 14
6 7 9 10 13 11 8 7 6 7 6 4 5 6 6 4 7 6 4 4 5 5 4 3 2 4 4 1 2 3 5 7 8 8 6 5 6 6 7 6 5 4 7
4 5 6 8 9 9 9 8 7 5 4 5 4 5 7 6 6 5 6 6 7 5 6 6 5 2 3 4 4 1 4 5 5 9 6 6 7 5 7 8 7 7 6
2 3 3 5 6 7 8 7 4 2 2 3 4 4 7 8 7 7 6 7 5 6 6 4 6 7 5 4 6 3 2 4 2 1 5 4 6 5 6 6 7 7 7
5 5 5 5 4 4 5 10 10 7 7 4 6 5 6 9 9 8 8 6 6 4 6 6 6 6 4 5 1 5 5 1 3 4 2 3 5 6 6 5 5 6 7
4 3 2 3 4 5 4 5 8 7 6 4 4 7 8 7 8 8 8 6 6 5 6 7 5 8 7 7 5 3 4 3 3 7 8 5 2 5 5 7 6 7 8
4 5 3 2 2 3 2 3 3 8 6 5 5 5 3 3 5 7 7 7 8 6 7 7 8 8 9 8 7 7 7 5 4 6 8 8 8 5 5 6 7 7 8
Wind_Direction
111 123 119 106 112 114 108 99 103 102 93 85 86 83 76 76 80 72 65 62 65 76 79 75 76 71 73 72 73 74 77 79 82 76 69 70 67 67 63 58 61 61 63
123 120 110 105 97 94 119 115 116 105 97 90 88 86 83 83 85 85 76 71 70 64 67 67 71 75 72 71 72 71 65 57 63 77 68 63 71 68 66 59 60 69 65
117 124 112 103 93 93 99 102 114 107 102 94 93 92 91 92 91 89 86 82 80 81 80 79 76 73 70 70 67 60 53 55 79 71 67 65 60 64 64 65 64 63 64
124 124 123 112 109 103 102 102 125 114 105 98 98 96 93 89 91 97 89 81 78 82 84 81 80 79 77 73 70 69 65 53 73 68 71 66 66 70 69 66 61 62 62
131 114 123 119 117 113 110 99 122 119 111 106 108 103 95 87 77 88 93 81 86 86 88 83 83 81 74 75 80 77 61 63 60 65 56 58 71 72 70 69 63 64 64
117 111 121 122 124 115 104 102 116 124 117 111 110 107 99 94 80 77 91 92 89 94 86 87 88 83 80 69 80 71 53 78 73 69 70 55 59 70 75 74 72 72 69
111 118 126 124 126 119 112 103 101 132 119 112 110 111 106 102 88 79 95 93 96 95 96 91 85 88 71 70 59 50 31 38 77 77 64 55 45 71 76 79 81 73 69
117 126 131 124 122 117 111 99 98 111 116 114 113 113 112 106 97 88 90 114 109 104 88 85 88 78 68 64 52 40 22 17 83 78 81 61 61 76 79 84 80 74 69
122 122 129 132 121 113 115 110 102 110 119 119 116 111 99 86 102 86 60 110 117 100 94 91 82 84 77 72 53 33 16 27 77 65 64 42 64 70 79 80 77 79 74
132 134 143 134 148 139 130 109 105 106 111 107 111 112 110 102 107 109 97 64 112 111 109 99 82 92 86 74 52 21 358 356 79 77 74 53 62 79 79 76 80 83 79
142 146 146 144 161 146 131 126 111 107 111 111 114 132 145 131 143 120 88 70 94 104 99 98 101 109 109 93 30 335 343 30 99 94 94 83 83 86 90 85 85 88 86
156 159 150 153 166 151 144 152 144 138 151 156 146 184 204 139 111 116 90 87 98 102 112 112 124 157 168 159 199 301 306 50 112 104 104 99 100 97 99 103 103 98 103
155 121 104 149 162 150 132 168 153 160 171 168 152 202 129 113 128 113 121 108 110 120 114 130 203 230 232 86 187 262 69 328 104 104 124 123 126 118 120 120 110 112 116
144 152 165 178 158 166 137 161 160 155 167 157 162 163 138 124 165 152 159 172 160 195 169 181 215 230 21 334 353 349 306 313 121 114 142 158 175 151 148 156 153 153 148
154 160 174 201 202 163 170 175 168 162 159 170 159 159 154 165 177 170 171 158 167 179 156 186 182 167 256 272 281 281 268 296 62 121 157 168 190 200 192 191 191 190 189
163 168 168 187 203 200 194 190 193 180 163 170 158 167 184 170 169 172 167 168 179 166 173 178 186 196 217 209 268 279 276 286 261 231 155 180 185 216 232 220 218 214 212
176 168 169 172 185 201 198 203 233 173 184 167 168 171 182 183 174 175 171 180 189 173 180 190 203 191 202 208 233 217 265 285 292 276 207 186 201 204 215 235 232 231 230
171 176 160 159 171 194 197 195 195 190 179 173 174 174 178 191 181 183 177 186 191 173 177 184 192 204 218 214 217 230 212 236 243 255 279 246 199 205 221 222 234 235 236
171 173 165 157 175 192 196 194 189 199 175 180 175 199 180 187 202 180 193 191 185 173 181 190 205 174 209 232 273 281 270 246 247 236 244 246 245 220 210 224 224 228 233
183 178 168 171 177 194 183 184 185 185 194 195 189 185 217 184 192 200 186 164 137 139 179 221 205 192 162 202 226 241 250 255 237 240 236 231 228 232 242 225 224 236 232
188 182 177 170 178 174 181 184 191 197 192 194 194 189 193 206 180 194 187 178 177 186 203 202 165 192 246 209 18 306 256 240 235 237 229 232 228 228 227 225 227 217 227
204 211 199 192 180 182 178 180 202 192 192 195 184 188 194 198 203 189 185 196 184 180 201 194 169 195 224 180 185 231 300 318 245 234 226 221 222 217 235 227 222 225 218
193 271 254 240 215 193 176 158 139 122 134 176 198 193 197 191 195 204 199 202 204 185 197 172 185 189 214 207 208 184 279 234 342 336 234 238 240 215 225 227 223 224 225
23 357 348 338 304 265 191 159 171 189 209 189 196 197 188 191 199 204 214 205 204 177 182 198 194 204 195 229 159 234 255 143 269 312 319 259 234 240 233 230 235 235 235
35 336 301 295 296 296 270 167 175 194 196 213 180 193 192 193 197 200 207 204 202 195 207 200 184 200 201 220 209 172 221 220 216 243 269 263 286 244 233 229 226 235 235
46 25 356 156 249 291 301 263 199 169 187 189 223 198 173 177 195 202 201 205 208 207 207 211 211 212 216 219 225 214 204 197 199 212 241 257 261 259 228 230 235 233 229